CTN368 LDZA-LWSK

Flight info

Callsign CTN368
Flight time 1h 4m
Altitude 37000
Route MOSAV DCT LURID DCT PODOB DCT MEDUX/N0407F270 M867 KOGAT
Aircraft A319/M-SDE3FGHIRWY/LB1

Departure

Time 2026-04-20 02:27
Airport Zagreb Franjo Tuđman International Airport (LDZA)

Arrival

Time 2026-04-20 03:31
Airport Skopje International Airport (LWSK)
Time Latitude Longitude Altitude Speed Heading
2026-04-20 01:31 45.74177 16.07840 359 ft 0 kts 136°
2026-04-20 02:16 45.74186 16.07828 359 ft 3 kts 136°
2026-04-20 02:16 45.74195 16.07815 358 ft 3 kts 136°
2026-04-20 02:16 45.74209 16.07797 358 ft 3 kts 136°
2026-04-20 02:16 45.74226 16.07773 359 ft 3 kts 136°
2026-04-20 02:17 45.74235 16.07758 359 ft 3 kts 162°
2026-04-20 02:17 45.74251 16.07759 359 ft 1 kts 242°
2026-04-20 02:17 45.74252 16.07760 359 ft 0 kts 246°
2026-04-20 02:19 45.74251 16.07758 359 ft 1 kts 245°
2026-04-20 02:20 45.74235 16.07732 359 ft 6 kts 227°
2026-04-20 02:20 45.74214 16.07699 364 ft 5 kts 226°
2026-04-20 02:20 45.74187 16.07659 366 ft 6 kts 226°
2026-04-20 02:20 45.74156 16.07612 362 ft 7 kts 226°
2026-04-20 02:21 45.74065 16.07470 362 ft 11 kts 238°
2026-04-20 02:21 45.74086 16.07380 359 ft 11 kts 316°
2026-04-20 02:21 45.74142 16.07305 365 ft 11 kts 317°
2026-04-20 02:22 45.74199 16.07229 359 ft 12 kts 317°
2026-04-20 02:22 45.74203 16.07134 359 ft 11 kts 230°
2026-04-20 02:22 45.74147 16.07050 361 ft 13 kts 226°
2026-04-20 02:22 45.74070 16.06934 359 ft 19 kts 226°
2026-04-20 02:23 45.73954 16.06758 363 ft 28 kts 227°
2026-04-20 02:23 45.73816 16.06548 362 ft 28 kts 226°
2026-04-20 02:23 45.73688 16.06352 361 ft 26 kts 227°
2026-04-20 02:23 45.73574 16.06179 363 ft 23 kts 227°
2026-04-20 02:24 45.73470 16.06021 361 ft 20 kts 226°
2026-04-20 02:24 45.73378 16.05881 364 ft 19 kts 226°
2026-04-20 02:24 45.73288 16.05744 362 ft 19 kts 226°
2026-04-20 02:24 45.73197 16.05605 360 ft 19 kts 227°
2026-04-20 02:25 45.73112 16.05475 359 ft 17 kts 230°
2026-04-20 02:25 45.73107 16.05333 363 ft 13 kts 295°
2026-04-20 02:25 45.73158 16.05257 363 ft 9 kts 321°
2026-04-20 02:25 45.73203 16.05218 362 ft 6 kts 12°
2026-04-20 02:26 45.73216 16.05237 362 ft 0 kts 49°
2026-04-20 02:26 45.73304 16.05373 362 ft 54 kts 47°
2026-04-20 02:26 45.73733 16.06027 361 ft 123 kts 47°
2026-04-20 02:26 45.74442 16.07103 529 ft 159 kts 47°
2026-04-20 02:27 45.75142 16.08320 1191 ft 160 kts 57°
2026-04-20 02:27 45.75640 16.09755 1859 ft 162 kts 70°
2026-04-20 02:27 45.75919 16.11312 2518 ft 162 kts 82°
2026-04-20 02:27 45.75970 16.12900 3192 ft 161 kts 94°
2026-04-20 02:28 45.75804 16.14512 3729 ft 172 kts 103°
2026-04-20 02:28 45.75533 16.16287 4090 ft 193 kts 103°
2026-04-20 02:28 45.75227 16.18277 4395 ft 219 kts 103°
2026-04-20 02:28 45.74879 16.20525 4915 ft 239 kts 103°
2026-04-20 02:29 45.74518 16.22899 5627 ft 249 kts 102°
2026-04-20 02:29 45.74151 16.25330 5841 ft 250 kts 102°
2026-04-20 02:29 45.73783 16.27762 5907 ft 250 kts 104°
2026-04-20 02:29 45.73156 16.30079 6396 ft 257 kts 117°
2026-04-20 02:30 45.72148 16.32206 6815 ft 259 kts 131°
2026-04-20 02:30 45.70862 16.33995 6898 ft 257 kts 136°
2026-04-20 02:30 45.69549 16.35733 6906 ft 257 kts 136°
2026-04-20 02:30 45.68237 16.37469 6917 ft 257 kts 136°
2026-04-20 02:31 45.67110 16.39431 6907 ft 256 kts 120°
2026-04-20 02:31 45.66403 16.41842 7077 ft 275 kts 104°
2026-04-20 02:31 45.65887 16.44507 7965 ft 281 kts 105°
2026-04-20 02:31 45.65348 16.47176 8833 ft 286 kts 105°
2026-04-20 02:32 45.64784 16.49933 9696 ft 292 kts 105°
2026-04-20 02:32 45.64197 16.52792 10256 ft 311 kts 106°
2026-04-20 02:32 45.63565 16.55872 10634 ft 333 kts 106°
2026-04-20 02:32 45.62902 16.59088 11310 ft 342 kts 106°
2026-04-20 02:33 45.62225 16.62383 12062 ft 349 kts 106°
2026-04-20 02:33 45.61537 16.65744 12800 ft 355 kts 106°
2026-04-20 02:33 45.60837 16.69164 13527 ft 361 kts 106°
2026-04-20 02:33 45.60136 16.72588 14220 ft 367 kts 106°
2026-04-20 02:34 45.59415 16.76113 14917 ft 372 kts 107°
2026-04-20 02:34 45.58680 16.79681 15594 ft 377 kts 107°
2026-04-20 02:34 45.57934 16.83294 16250 ft 383 kts 107°
2026-04-20 02:34 45.57175 16.86961 16891 ft 388 kts 108°
2026-04-20 02:35 45.56156 16.90544 17495 ft 392 kts 119°
2026-04-20 02:35 45.54673 16.93808 18103 ft 394 kts 131°
2026-04-20 02:35 45.52782 16.96636 18721 ft 395 kts 142°
2026-04-20 02:35 45.50655 16.99039 19369 ft 396 kts 145°
2026-04-20 02:36 45.48475 17.01450 20016 ft 399 kts 145°
2026-04-20 02:36 45.46277 17.03881 20630 ft 402 kts 145°
2026-04-20 02:36 45.44056 17.06337 21226 ft 405 kts 145°
2026-04-20 02:36 45.41817 17.08812 21802 ft 409 kts 145°
2026-04-20 02:37 45.39562 17.11304 22366 ft 413 kts 145°
2026-04-20 02:37 45.37289 17.13820 22894 ft 416 kts 145°
2026-04-20 02:37 45.34993 17.16360 23422 ft 419 kts 145°
2026-04-20 02:37 45.32712 17.18879 23915 ft 423 kts 146°
2026-04-20 02:38 45.30378 17.21448 24395 ft 426 kts 146°
2026-04-20 02:38 45.28025 17.24031 24871 ft 429 kts 146°
2026-04-20 02:38 45.25655 17.26629 25344 ft 431 kts 146°
2026-04-20 02:38 45.23275 17.29242 25790 ft 435 kts 146°
2026-04-20 02:39 45.20878 17.31873 26201 ft 438 kts 146°
2026-04-20 02:39 45.18452 17.34530 26609 ft 442 kts 146°
2026-04-20 02:39 45.16008 17.37201 27014 ft 445 kts 146°
2026-04-20 02:39 45.13549 17.39887 27414 ft 448 kts 146°
2026-04-20 02:40 45.11114 17.42568 27804 ft 451 kts 145°
2026-04-20 02:40 45.08643 17.45333 28184 ft 455 kts 145°
2026-04-20 02:40 45.06164 17.48138 28550 ft 458 kts 144°
2026-04-20 02:40 45.03671 17.50966 28916 ft 461 kts 144°
2026-04-20 02:41 45.01163 17.53804 29274 ft 463 kts 144°
2026-04-20 02:41 44.98635 17.56653 29601 ft 466 kts 144°
2026-04-20 02:41 44.96091 17.59513 29927 ft 469 kts 144°
2026-04-20 02:41 44.93529 17.62385 30240 ft 472 kts 144°
2026-04-20 02:42 44.90983 17.65231 30553 ft 474 kts 144°
2026-04-20 02:42 44.88388 17.68118 30855 ft 477 kts 144°
2026-04-20 02:42 44.85778 17.71016 31177 ft 478 kts 144°
2026-04-20 02:42 44.83167 17.73916 31603 ft 478 kts 144°
2026-04-20 02:43 44.80559 17.76814 32031 ft 476 kts 144°
2026-04-20 02:43 44.77962 17.79696 32456 ft 475 kts 144°
2026-04-20 02:43 44.75370 17.82570 32858 ft 475 kts 144°
2026-04-20 02:43 44.72774 17.85447 33239 ft 475 kts 144°
2026-04-20 02:44 44.70179 17.88317 33623 ft 474 kts 144°
2026-04-20 02:44 44.67623 17.91142 34010 ft 474 kts 144°
2026-04-20 02:44 44.65033 17.94003 34374 ft 473 kts 144°
2026-04-20 02:44 44.62444 17.96858 34718 ft 473 kts 144°
2026-04-20 02:45 44.59859 17.99712 35057 ft 473 kts 144°
2026-04-20 02:45 44.57277 18.02562 35391 ft 472 kts 144°
2026-04-20 02:45 44.54701 18.05400 35715 ft 471 kts 144°
2026-04-20 02:45 44.52126 18.08234 36010 ft 470 kts 144°
2026-04-20 02:46 44.49552 18.11061 36188 ft 470 kts 144°
2026-04-20 02:46 44.44454 18.16631 36222 ft 467 kts 144°
2026-04-20 02:47 44.39334 18.22207 36222 ft 466 kts 144°
2026-04-20 02:47 44.34224 18.27768 36220 ft 465 kts 144°
2026-04-20 02:48 44.29120 18.33310 36221 ft 465 kts 144°
2026-04-20 02:48 44.24052 18.38812 36225 ft 464 kts 144°
2026-04-20 02:49 44.18956 18.44336 36224 ft 464 kts 144°
2026-04-20 02:49 44.13854 18.49848 36224 ft 464 kts 144°
2026-04-20 02:50 44.08751 18.55345 36223 ft 464 kts 144°
2026-04-20 02:50 44.03679 18.60793 36223 ft 464 kts 144°
2026-04-20 02:51 43.98563 18.66270 36229 ft 464 kts 144°
2026-04-20 02:51 43.93448 18.71749 36233 ft 465 kts 144°
2026-04-20 02:52 43.88326 18.77222 36235 ft 465 kts 144°
2026-04-20 02:52 43.83231 18.82653 36237 ft 465 kts 144°
2026-04-20 02:53 43.78101 18.88106 36240 ft 465 kts 144°
2026-04-20 02:53 43.72963 18.93554 36245 ft 465 kts 144°
2026-04-20 02:54 43.67824 18.98992 36246 ft 465 kts 144°
2026-04-20 02:54 43.62715 19.04382 36251 ft 465 kts 144°
2026-04-20 02:55 43.57574 19.09805 36251 ft 465 kts 144°
2026-04-20 02:55 43.52433 19.15224 36255 ft 465 kts 144°
2026-04-20 02:56 43.47402 19.20812 36256 ft 465 kts 142°
2026-04-20 02:56 43.42475 19.26513 36252 ft 466 kts 141°
2026-04-20 02:57 43.37505 19.32229 36253 ft 466 kts 142°
2026-04-20 02:57 43.32495 19.37888 36255 ft 466 kts 142°
2026-04-20 02:58 43.27470 19.43527 36259 ft 467 kts 142°
2026-04-20 02:58 43.22487 19.49128 36260 ft 467 kts 142°
2026-04-20 02:59 43.17467 19.54767 36224 ft 467 kts 142°
2026-04-20 02:59 43.14949 19.57591 35978 ft 467 kts 142°
2026-04-20 02:59 43.12436 19.60398 35724 ft 466 kts 142°
2026-04-20 02:59 43.09918 19.63207 35085 ft 469 kts 142°
2026-04-20 03:00 43.07370 19.66046 34128 ft 476 kts 142°
2026-04-20 03:00 43.04792 19.68921 33199 ft 481 kts 141°
2026-04-20 03:00 43.02245 19.71763 32685 ft 475 kts 141°
2026-04-20 03:00 42.99700 19.74599 32138 ft 470 kts 142°
2026-04-20 03:01 42.97178 19.77405 31578 ft 465 kts 142°
2026-04-20 03:01 42.94679 19.80178 31008 ft 461 kts 142°
2026-04-20 03:01 42.92204 19.82915 30449 ft 456 kts 142°
2026-04-20 03:01 42.89753 19.85626 29876 ft 451 kts 143°
2026-04-20 03:02 42.87325 19.88310 29307 ft 448 kts 143°
2026-04-20 03:02 42.84921 19.90969 28811 ft 442 kts 142°
2026-04-20 03:02 42.82544 19.93598 28332 ft 437 kts 142°
2026-04-20 03:02 42.80232 19.96150 27856 ft 432 kts 143°
2026-04-20 03:03 42.77912 19.98711 27373 ft 426 kts 143°
2026-04-20 03:03 42.75629 20.01251 26907 ft 422 kts 140°
2026-04-20 03:03 42.73595 20.04102 26490 ft 418 kts 130°
2026-04-20 03:03 42.71774 20.07137 26200 ft 412 kts 130°
2026-04-20 03:04 42.69965 20.10133 25867 ft 409 kts 131°
2026-04-20 03:04 42.68162 20.13106 25533 ft 406 kts 130°
2026-04-20 03:04 42.66370 20.16056 25207 ft 403 kts 130°
2026-04-20 03:04 42.64616 20.18942 24876 ft 401 kts 130°
2026-04-20 03:05 42.62845 20.21854 24537 ft 398 kts 130°
2026-04-20 03:05 42.61083 20.24751 24198 ft 396 kts 130°
2026-04-20 03:05 42.59336 20.27621 23862 ft 395 kts 130°
2026-04-20 03:05 42.57584 20.30493 23513 ft 393 kts 130°
2026-04-20 03:06 42.55841 20.33345 23185 ft 391 kts 130°
2026-04-20 03:06 42.54110 20.36170 22870 ft 389 kts 130°
2026-04-20 03:06 42.52407 20.38954 22588 ft 388 kts 130°
2026-04-20 03:06 42.50690 20.41766 22297 ft 387 kts 130°
2026-04-20 03:07 42.48980 20.44568 22004 ft 385 kts 130°
2026-04-20 03:07 42.47275 20.47359 21713 ft 384 kts 130°
2026-04-20 03:07 42.45577 20.50132 21406 ft 382 kts 130°
2026-04-20 03:07 42.43886 20.52890 21108 ft 380 kts 130°
2026-04-20 03:08 42.42196 20.55641 20799 ft 379 kts 130°
2026-04-20 03:08 42.40512 20.58375 20503 ft 378 kts 130°
2026-04-20 03:08 42.38831 20.61103 20197 ft 376 kts 130°
2026-04-20 03:08 42.37182 20.63781 19899 ft 375 kts 130°
2026-04-20 03:09 42.35519 20.66479 19583 ft 374 kts 130°
2026-04-20 03:09 42.33852 20.69180 19271 ft 373 kts 130°
2026-04-20 03:09 42.32193 20.71866 18952 ft 371 kts 130°
2026-04-20 03:09 42.30542 20.74538 18637 ft 370 kts 130°
2026-04-20 03:10 42.28888 20.77209 18325 ft 370 kts 130°
2026-04-20 03:10 42.27239 20.79865 17994 ft 369 kts 130°
2026-04-20 03:10 42.25594 20.82515 17705 ft 367 kts 130°
2026-04-20 03:10 42.23982 20.85113 17435 ft 365 kts 130°
2026-04-20 03:11 42.22356 20.87726 17149 ft 363 kts 130°
2026-04-20 03:11 42.20739 20.90323 16871 ft 361 kts 130°
2026-04-20 03:11 42.19129 20.92910 16581 ft 359 kts 130°
2026-04-20 03:11 42.17530 20.95478 16308 ft 357 kts 130°
2026-04-20 03:12 42.15936 20.98033 16025 ft 355 kts 130°
2026-04-20 03:12 42.14346 21.00580 15738 ft 353 kts 130°
2026-04-20 03:12 42.12768 21.03108 15448 ft 352 kts 130°
2026-04-20 03:12 42.11334 21.05715 15161 ft 350 kts 120°
2026-04-20 03:13 42.10294 21.08656 14871 ft 348 kts 111°
2026-04-20 03:13 42.09384 21.11669 14587 ft 346 kts 111°
2026-04-20 03:13 42.08474 21.14661 14297 ft 344 kts 112°
2026-04-20 03:13 42.07568 21.17624 14009 ft 341 kts 112°
2026-04-20 03:14 42.06662 21.20564 13704 ft 339 kts 112°
2026-04-20 03:14 42.05760 21.23479 13417 ft 337 kts 112°
2026-04-20 03:14 42.04863 21.26392 13158 ft 335 kts 112°
2026-04-20 03:14 42.03986 21.29245 12902 ft 334 kts 112°
2026-04-20 03:15 42.03101 21.32118 12643 ft 332 kts 112°
2026-04-20 03:15 42.02218 21.34973 12382 ft 330 kts 112°
2026-04-20 03:15 42.01339 21.37814 12120 ft 328 kts 112°
2026-04-20 03:15 42.00464 21.40641 11859 ft 326 kts 112°
2026-04-20 03:16 41.99595 21.43445 11595 ft 324 kts 112°
2026-04-20 03:16 41.98729 21.46238 11326 ft 323 kts 112°
2026-04-20 03:16 41.97868 21.49012 11046 ft 321 kts 113°
2026-04-20 03:16 41.97021 21.51731 10755 ft 319 kts 113°
2026-04-20 03:17 41.96169 21.54464 10487 ft 317 kts 113°
2026-04-20 03:17 41.95320 21.57195 10219 ft 316 kts 112°
2026-04-20 03:17 41.94400 21.59834 10014 ft 307 kts 122°
2026-04-20 03:17 41.93074 21.62003 9864 ft 297 kts 139°
2026-04-20 03:18 41.91383 21.63588 9650 ft 296 kts 155°
2026-04-20 03:18 41.89467 21.64490 9383 ft 290 kts 168°
2026-04-20 03:18 41.87540 21.65143 9192 ft 282 kts 167°
2026-04-20 03:18 41.85676 21.65783 8874 ft 279 kts 167°
2026-04-20 03:19 41.83799 21.66432 8614 ft 277 kts 167°
2026-04-20 03:19 41.81932 21.67080 8357 ft 276 kts 167°
2026-04-20 03:19 41.80077 21.67724 8100 ft 275 kts 167°
2026-04-20 03:19 41.78227 21.68366 7839 ft 274 kts 167°
2026-04-20 03:20 41.76389 21.69004 7587 ft 273 kts 167°
2026-04-20 03:20 41.74548 21.69641 7326 ft 277 kts 167°
2026-04-20 03:20 41.72686 21.70285 7054 ft 274 kts 167°
2026-04-20 03:20 41.70886 21.70909 6798 ft 267 kts 167°
2026-04-20 03:21 41.69110 21.71524 6544 ft 260 kts 167°
2026-04-20 03:21 41.67377 21.72123 6293 ft 255 kts 167°
2026-04-20 03:21 41.65685 21.72708 6052 ft 248 kts 168°
2026-04-20 03:21 41.64037 21.73276 5824 ft 241 kts 167°
2026-04-20 03:22 41.62431 21.73830 5610 ft 235 kts 168°
2026-04-20 03:22 41.60872 21.74437 5399 ft 233 kts 157°
2026-04-20 03:22 41.59720 21.75913 5248 ft 235 kts 115°
2026-04-20 03:22 41.59548 21.78046 5088 ft 235 kts 74°
2026-04-20 03:23 41.60418 21.79786 4929 ft 231 kts 33°
2026-04-20 03:23 41.61929 21.80352 4791 ft 227 kts 351°
2026-04-20 03:23 41.63356 21.79579 4707 ft 222 kts 326°
2026-04-20 03:23 41.64686 21.78526 4635 ft 221 kts 327°
2026-04-20 03:24 41.66017 21.77496 4591 ft 221 kts 328°
2026-04-20 03:24 41.67359 21.76477 4520 ft 222 kts 329°
2026-04-20 03:24 41.68711 21.75468 4454 ft 222 kts 329°
2026-04-20 03:24 41.70044 21.74483 4439 ft 222 kts 329°
2026-04-20 03:25 41.71396 21.73493 4379 ft 221 kts 329°
2026-04-20 03:25 41.72751 21.72505 4318 ft 222 kts 329°
2026-04-20 03:25 41.74103 21.71522 4237 ft 218 kts 329°
2026-04-20 03:25 41.75423 21.70562 4169 ft 214 kts 329°
2026-04-20 03:26 41.76722 21.69619 4102 ft 212 kts 329°
2026-04-20 03:26 41.77991 21.68698 4036 ft 202 kts 329°
2026-04-20 03:26 41.79267 21.68002 3982 ft 196 kts 341°
2026-04-20 03:26 41.80526 21.67565 3896 ft 183 kts 343°
2026-04-20 03:27 41.81732 21.67153 3745 ft 177 kts 344°
2026-04-20 03:27 41.82901 21.66750 3528 ft 169 kts 343°
2026-04-20 03:27 41.84009 21.66366 3279 ft 160 kts 344°
2026-04-20 03:27 41.85061 21.66002 3043 ft 152 kts 343°
2026-04-20 03:28 41.86069 21.65652 2803 ft 147 kts 345°
2026-04-20 03:28 41.87043 21.65314 2577 ft 143 kts 345°
2026-04-20 03:28 41.88941 21.64653 2168 ft 141 kts 345°
2026-04-20 03:29 41.89885 21.64325 1982 ft 140 kts 345°
2026-04-20 03:29 41.90832 21.63996 1787 ft 141 kts 344°
2026-04-20 03:29 41.91780 21.63670 1561 ft 141 kts 344°
2026-04-20 03:29 41.92725 21.63336 1353 ft 140 kts 345°
2026-04-20 03:30 41.93669 21.63012 1148 ft 139 kts 346°
2026-04-20 03:30 41.94601 21.62683 929 ft 138 kts 346°
2026-04-20 03:30 41.95502 21.62370 789 ft 124 kts 347°
2026-04-20 03:30 41.96185 21.62135 789 ft 76 kts 345°
2026-04-20 03:31 41.96473 21.62050 791 ft 22 kts 18°
2026-04-20 03:31 41.96521 21.62209 793 ft 6 kts 76°
2026-04-20 03:31 41.96523 21.62222 793 ft 2 kts 76°
2026-04-20 03:31 41.96525 21.62253 793 ft 4 kts 96°
2026-04-20 03:32 41.96502 21.62290 793 ft 7 kts 151°
2026-04-20 03:32 41.96438 21.62314 793 ft 12 kts 165°
2026-04-20 03:32 41.96336 21.62350 792 ft 17 kts 165°
2026-04-20 03:32 41.96219 21.62392 792 ft 18 kts 165°
2026-04-20 03:33 41.96125 21.62432 792 ft 7 kts 134°
2026-04-20 03:33 41.96127 21.62484 793 ft 5 kts 89°
2026-04-20 03:33 41.96098 21.62514 793 ft 7 kts 165°
2026-04-20 03:33 41.96062 21.62554 793 ft 8 kts 92°
2026-04-20 03:34 41.96067 21.62587 793 ft 0 kts 75°